Custer, SD

9:55 AM MST on December 12, 2017 (GMT -0700)
Custer County

Weather History for KCUT - March, 2013

Change the Weather History Date:

Sunday, March 31, 2013

  Actual Average Record
Temperature  
Mean Temperature 37 °F 35 °F  
Max Temperature 52 °F 45 °F 71 °F (1946)
Min Temperature 22 °F 24 °F -17 °F (1954)
Degree Days  
Heating Degree Days 28 30  
Month to date heating degree days 1085 1039  
Since 1 July heating degree days 6627 6875  
Cooling Degree Days 0 0  
Month to date cooling degree days 0 0  
Year to date cooling degree days 0 0  
Moisture  
Dew Point 21 °F    
Average Humidity 60    
Maximum Humidity 85    
Minimum Humidity 34    
Precipitation  
Precipitation 0.00 in 0.04 in 0.97 in (1927)
Month to date precipitation 0.74 1.01  
Year to date precipitation 1.67 1.87  
Sea Level Pressure  
Sea Level Pressure 30.04 in    
Wind  
Wind Speed 9 mph (West)    
Max Wind Speed 26 mph    
Max Gust Speed 43 mph    
Visibility 10 miles    
Events      
T = Trace of Precipitation, MM = Missing Value Source: NWS Daily Summary

Daily Weather History Graph

Daily Weather History Graph

Search for Another Location

Airport or City:

Trip Planner

Search our weather history database for the weather conditions in past years. The results will help you decide how hot, cold, wet, or windy it might be!

Date:

Astronomy

Mar. 31, 2013 Rise Set
Actual Time 6:37 AM MDT 7:20 PM MDT
Civil Twilight 6:08 AM MDT 7:49 PM MDT
Nautical Twilight 5:33 AM MDT 8:24 PM MDT
Astronomical Twilight 4:58 AM MDT 8:59 PM MDT
Moon No Moon Rise 9:18 AM MDT (3/31)
Length of Visible Light 13h 41m
Length of Day
12h 43m
Waning Gibbous, 77% of the Moon is Illuminated
Mar 31
Waning Gibbous
Apr 2
Last Quarter
Apr 10
New
Apr 18
First Quarter
Apr 25
Full

Hourly Weather History & Observations

Time (MDT) Temp. Windchill Dew Point Humidity Pressure Visibility Wind Dir Wind Speed Gust Speed Precip Events Conditions
12:53 AM 26.1 °F 21.9 °F 23.0 °F 88% 30.12 in 10.0 mi WSW 3.5 mph - N/A   Clear
1:53 AM 28.9 °F 23.9 °F 24.1 °F 82% 30.12 in 10.0 mi SSW 4.6 mph - N/A   Clear
2:53 AM 27.0 °F 23.0 °F 21.9 °F 81% 30.07 in 10.0 mi SW 3.5 mph - N/A   Clear
3:53 AM 28.0 °F 21.7 °F 21.9 °F 78% 30.07 in 10.0 mi West 5.8 mph - N/A   Clear
4:53 AM 28.9 °F 21.1 °F 19.0 °F 67% 30.04 in 10.0 mi West 8.1 mph - N/A   Clear
5:53 AM 28.9 °F 21.1 °F 19.0 °F 67% 30.01 in 10.0 mi West 8.1 mph - N/A   Clear
6:53 AM 28.9 °F 21.9 °F 19.0 °F 67% 30.01 in 10.0 mi West 6.9 mph - N/A   Clear
7:53 AM 34.0 °F 26.6 °F 19.0 °F 54% 30.01 in 10.0 mi West 9.2 mph - N/A   Clear
8:53 AM 39.9 °F 34.5 °F 24.1 °F 53% 29.97 in 10.0 mi WSW 8.1 mph 18.4 mph N/A   Clear
9:53 AM 43.0 °F 36.4 °F 25.0 °F 49% 29.94 in 10.0 mi WSW 12.7 mph 23.0 mph N/A   Clear
10:53 AM 46.9 °F - 26.1 °F 44% 29.92 in 10.0 mi West 12.7 mph 19.6 mph N/A   Clear
11:53 AM 48.9 °F - 24.1 °F 38% 29.95 in 10.0 mi WNW 13.8 mph 23.0 mph N/A   Mostly Cloudy
12:53 PM 48.0 °F - 21.0 °F 34% 29.97 in 10.0 mi NW 19.6 mph 35.7 mph N/A   Mostly Cloudy
1:53 PM 48.9 °F - 21.9 °F 35% 29.96 in 10.0 mi WNW 19.6 mph 38.0 mph N/A   Overcast
2:53 PM 48.9 °F - 21.0 °F 33% 29.97 in 10.0 mi WNW 15.0 mph 25.3 mph N/A   Overcast
3:53 PM 46.9 °F - 23.0 °F 39% 29.99 in 10.0 mi WNW 17.3 mph 25.3 mph N/A   Overcast
4:53 PM 46.0 °F 40.6 °F 21.9 °F 39% 30.00 in 10.0 mi WNW 11.5 mph 25.3 mph N/A   Mostly Cloudy
5:53 PM 46.0 °F 39.6 °F 19.0 °F 34% 30.01 in 10.0 mi WNW 15.0 mph 26.5 mph N/A   Clear
6:53 PM 34.0 °F 25.5 °F 17.1 °F 50% 30.11 in 10.0 mi ENE 11.5 mph - N/A   Clear
7:53 PM 30.0 °F 23.2 °F 17.1 °F 59% 30.12 in 10.0 mi East 6.9 mph - N/A   Clear
8:53 PM 26.1 °F 18.4 °F 17.1 °F 69% 30.13 in 10.0 mi NE 6.9 mph - N/A   Clear
9:53 PM 25.0 °F - 17.1 °F 72% 30.14 in 10.0 mi Calm Calm - N/A   Clear
10:53 PM 24.1 °F 19.7 °F 16.0 °F 71% 30.13 in 10.0 mi WSW 3.5 mph - N/A   Clear
11:53 PM 23.0 °F 18.4 °F 17.1 °F 78% 30.12 in 10.0 mi NW 3.5 mph - N/A   Clear